Terminal Aerodrome Forecast
Issued by NWS

Home | Current Version | Previous Version | Text Only | Print | Product List | Glossary On
Versions: 1 2 3 4 5 6 7 8 9 10 11 12 13 14 15 16 17 18 19 20 21 22 23 24 25 26 27 28 29 30 31 32 33 34 35 36 37 38 39 40 41 42 43 44 45 46 47 48 49 50
000
FTUS46 KEKA 270125 AAB
TAFACV
TAF AMD
KACV 270125Z 2701/2724 30005KT 2SM -SHRA BR SCT005 BKN015 OVC025
      TEMPO 2701/2705 1/4SM -RA FG OVC005
     FM270500 20004KT 1SM -RA BKN006 OVC011
     FM271600 27006KT P6SM -SHRA SCT006 OVC015
     FM272100 30010KT P6SM -SHRA OVC025=

USA.gov is the U.S. government's official web portal to all federal, state and local government web resources and services.